Time,TemperatureF,DewpointF,PressureIn,WindDirection,WindDirectionDegrees,WindSpeedMPH,WindSpeedGustMPH,Humidity,HourlyPrecipIn,Conditions,Clouds,dailyrainin,SoftwareType,DateUTC
2013-02-20 00:02:00,42.0,30.0,29.93,SSW,199,1.0,8.0,61,-99.99,,,-99.99,,2013-02-20 05:02:00,
2013-02-20 00:22:00,41.0,29.0,29.94,SE,139,4.0,4.0,61,-99.99,,,-99.99,,2013-02-20 05:22:00,
2013-02-20 00:32:00,40.0,29.0,29.95,WSW,239,3.0,6.0,64,-99.99,,,-99.99,,2013-02-20 05:32:00,
2013-02-20 00:52:00,40.0,29.0,29.95,SW,215,5.0,14.0,64,-99.99,,,-99.99,,2013-02-20 05:52:00,
2013-02-20 01:02:00,40.0,29.0,29.95,WSW,242,4.0,16.0,64,-99.99,,,-99.99,,2013-02-20 06:02:00,
2013-02-20 01:22:00,40.0,29.0,29.96,SSW,213,8.0,13.0,64,-99.99,,,-99.99,,2013-02-20 06:22:00,
2013-02-20 01:32:00,40.0,28.0,29.96,SSW,200,9.0,16.0,63,-99.99,,,-99.99,,2013-02-20 06:32:00,
2013-02-20 01:52:00,40.0,29.0,29.96,SSW,200,9.0,14.0,64,-99.99,,,-99.99,,2013-02-20 06:52:00,
2013-02-20 02:02:00,39.0,29.0,29.97,WSW,239,6.0,14.0,66,-99.99,,,-99.99,,2013-02-20 07:02:00,
2013-02-20 02:21:00,38.0,28.0,29.97,WSW,244,11.0,20.0,68,-99.99,,,-99.99,,2013-02-20 07:21:00,
2013-02-20 02:32:00,38.0,28.0,29.98,South,190,6.0,15.0,68,-99.99,,,-99.99,,2013-02-20 07:32:00,
2013-02-20 02:52:00,38.0,29.0,29.97,WSW,244,4.0,7.0,70,-99.99,,,-99.99,,2013-02-20 07:52:00,
2013-02-20 03:05:00,37.0,28.0,29.97,SSW,203,8.0,13.0,69,-99.99,,,-99.99,,2013-02-20 08:05:00,
2013-02-20 03:22:00,38.0,28.0,29.97,WSW,248,8.0,16.0,67,-99.99,,,-99.99,,2013-02-20 08:22:00,
2013-02-20 03:31:00,37.0,27.0,29.97,SW,214,8.0,16.0,68,-99.99,,,-99.99,,2013-02-20 08:31:00,
2013-02-20 03:52:00,37.0,27.0,29.97,WSW,242,5.0,15.0,67,-99.99,,,-99.99,,2013-02-20 08:52:00,
2013-02-20 04:02:00,37.0,26.0,29.97,WSW,253,8.0,20.0,65,-99.99,,,-99.99,,2013-02-20 09:02:00,
2013-02-20 04:21:00,36.0,25.0,29.97,WSW,241,8.0,18.0,65,-99.99,,,-99.99,,2013-02-20 09:21:00,
2013-02-20 04:32:00,36.0,25.0,29.98,South,173,5.0,15.0,65,-99.99,,,-99.99,,2013-02-20 09:32:00,
2013-02-20 04:52:00,36.0,26.0,29.98,SW,215,3.0,16.0,68,-99.99,,,-99.99,,2013-02-20 09:52:00,
2013-02-20 05:01:00,35.0,26.0,29.99,WSW,238,11.0,17.0,68,-99.99,,,-99.99,,2013-02-20 10:01:00,
2013-02-20 05:22:00,35.0,26.0,29.98,SSW,206,9.0,14.0,69,-99.99,,,-99.99,,2013-02-20 10:22:00,
2013-02-20 05:32:00,35.0,27.0,29.99,South,180,7.0,10.0,71,-99.99,,,-99.99,,2013-02-20 10:32:00,
2013-02-20 05:51:00,34.0,25.0,30.00,South,190,3.0,11.0,70,-99.99,,,-99.99,,2013-02-20 10:51:00,
2013-02-20 06:02:00,34.0,25.0,30.00,South,179,7.0,12.0,69,-99.99,,,-99.99,,2013-02-20 11:02:00,
2013-02-20 06:21:00,34.0,25.0,29.99,SSW,197,4.0,13.0,70,-99.99,,,-99.99,,2013-02-20 11:21:00,
2013-02-20 06:32:00,34.0,25.0,29.99,WSW,248,2.0,12.0,70,-99.99,,,-99.99,,2013-02-20 11:32:00,
2013-02-20 06:52:00,34.0,25.0,30.00,SSW,197,3.0,7.0,70,-99.99,,,-99.99,,2013-02-20 11:52:00,
2013-02-20 07:02:00,33.0,24.0,30.00,West,270,4.0,6.0,70,-99.99,,,-99.99,,2013-02-20 12:02:00,
2013-02-20 07:22:00,33.0,24.0,30.00,South,172,0.0,5.0,70,-99.99,,,-99.99,,2013-02-20 12:22:00,
2013-02-20 07:32:00,34.0,25.0,30.01,SW,222,3.0,11.0,68,-99.99,,,-99.99,,2013-02-20 12:32:00,
2013-02-20 07:53:00,34.0,25.0,30.02,SW,235,2.0,10.0,68,-99.99,,,-99.99,,2013-02-20 12:53:00,
2013-02-20 08:01:00,34.0,25.0,30.02,WSW,244,6.0,7.0,68,-99.99,,,-99.99,,2013-02-20 13:01:00,
2013-02-20 08:22:00,35.0,25.0,30.01,SSW,210,6.0,9.0,66,-99.99,,,-99.99,,2013-02-20 13:22:00,
2013-02-20 08:32:00,35.0,24.0,30.02,SW,228,6.0,12.0,65,-99.99,,,-99.99,,2013-02-20 13:32:00,
2013-02-20 08:52:00,36.0,25.0,30.01,WSW,238,7.0,16.0,64,-99.99,,,-99.99,,2013-02-20 13:52:00,
2013-02-20 09:01:00,36.0,25.0,30.01,SSW,197,6.0,16.0,63,-99.99,,,-99.99,,2013-02-20 14:01:00,
2013-02-20 09:22:00,36.0,24.0,30.01,WSW,244,6.0,16.0,62,-99.99,,,-99.99,,2013-02-20 14:22:00,
2013-02-20 09:32:00,37.0,25.0,30.01,South,169,4.0,12.0,62,-99.99,,,-99.99,,2013-02-20 14:32:00,
2013-02-20 09:52:00,38.0,25.0,30.02,SW,217,6.0,18.0,60,-99.99,,,-99.99,,2013-02-20 14:52:00,
2013-02-20 10:02:00,38.0,25.0,30.02,WSW,255,7.0,14.0,59,-99.99,,,-99.99,,2013-02-20 15:02:00,
2013-02-20 10:32:00,39.0,26.0,30.03,SW,225,1.0,14.0,59,-99.99,,,-99.99,,2013-02-20 15:32:00,
2013-02-20 11:01:00,40.0,26.0,30.03,SW,235,6.0,15.0,56,-99.99,,,-99.99,,2013-02-20 16:01:00,
2013-02-20 11:32:00,42.0,27.0,30.03,SSW,196,9.0,13.0,55,-99.99,,,-99.99,,2013-02-20 16:32:00,
2013-02-20 12:01:00,43.0,27.0,30.03,SW,221,6.0,13.0,52,-99.99,,,-99.99,,2013-02-20 17:01:00,
2013-02-20 12:11:00,43.0,26.0,30.02,SSW,201,10.0,19.0,50,-99.99,,,-99.99,,2013-02-20 17:11:00,
2013-02-20 12:32:00,44.0,27.0,30.02,WSW,244,8.0,16.0,50,-99.99,,,-99.99,,2013-02-20 17:32:00,
2013-02-20 12:52:00,44.0,26.0,30.02,SSW,197,10.0,20.0,49,-99.99,,,-99.99,,2013-02-20 17:52:00,
2013-02-20 13:02:00,44.0,26.0,30.02,SSW,199,10.0,19.0,48,-99.99,,,-99.99,,2013-02-20 18:02:00,
2013-02-20 13:21:00,45.0,27.0,30.00,SSW,201,10.0,19.0,50,-99.99,,,-99.99,,2013-02-20 18:21:00,
2013-02-20 13:32:00,46.0,26.0,29.99,WSW,251,8.0,18.0,45,-99.99,,,-99.99,,2013-02-20 18:32:00,
2013-02-20 13:52:00,46.0,25.0,30.00,SSW,204,10.0,16.0,44,-99.99,,,-99.99,,2013-02-20 18:52:00,
2013-02-20 14:01:00,48.0,28.0,29.99,West,265,5.0,15.0,46,-99.99,,,-99.99,,2013-02-20 19:01:00,
2013-02-20 14:21:00,48.0,29.0,29.98,WSW,252,6.0,15.0,47,-99.99,,,-99.99,,2013-02-20 19:21:00,
2013-02-20 14:32:00,48.0,28.0,29.99,SSW,203,5.0,20.0,46,-99.99,,,-99.99,,2013-02-20 19:32:00,
2013-02-20 14:52:00,48.0,27.0,29.98,WNW,293,5.0,14.0,43,-99.99,,,-99.99,,2013-02-20 19:52:00,
2013-02-20 15:01:00,49.0,27.0,29.98,West,262,6.0,15.0,43,-99.99,,,-99.99,,2013-02-20 20:01:00,
2013-02-20 15:11:00,49.0,28.0,29.97,WNW,284,7.0,15.0,44,-99.99,,,-99.99,,2013-02-20 20:11:00,
2013-02-20 15:21:00,49.0,28.0,29.97,WNW,284,7.0,15.0,44,-99.99,,,-99.99,,2013-02-20 20:21:00,
2013-02-20 15:31:00,50.0,29.0,29.98,SW,229,6.0,13.0,44,-99.99,,,-99.99,,2013-02-20 20:31:00,
2013-02-20 15:52:00,50.0,27.0,29.98,SW,229,10.0,14.0,41,-99.99,,,-99.99,,2013-02-20 20:52:00,
2013-02-20 16:01:00,50.0,28.0,29.98,WSW,255,7.0,12.0,42,-99.99,,,-99.99,,2013-02-20 21:01:00,
2013-02-20 16:21:00,50.0,28.0,29.98,West,266,6.0,9.0,42,-99.99,,,-99.99,,2013-02-20 21:21:00,
2013-02-20 16:31:00,49.0,27.0,29.98,West,265,5.0,15.0,42,-99.99,,,-99.99,,2013-02-20 21:31:00,
2013-02-20 16:52:00,48.0,26.0,29.99,West,269,6.0,13.0,42,-99.99,,,-99.99,,2013-02-20 21:52:00,
2013-02-20 17:02:00,48.0,26.0,29.99,WSW,256,4.0,10.0,42,-99.99,,,-99.99,,2013-02-20 22:02:00,
2013-02-20 17:21:00,48.0,25.0,30.00,West,275,7.0,14.0,41,-99.99,,,-99.99,,2013-02-20 22:21:00,
2013-02-20 17:31:00,47.0,26.0,30.01,West,266,7.0,12.0,43,-99.99,,,-99.99,,2013-02-20 22:31:00,
2013-02-20 17:52:00,46.0,25.0,30.01,SW,235,9.0,13.0,43,-99.99,,,-99.99,,2013-02-20 22:52:00,
2013-02-20 18:01:00,46.0,26.0,30.02,SSW,196,5.0,14.0,45,-99.99,,,-99.99,,2013-02-20 23:01:00,
2013-02-20 18:22:00,45.0,26.0,30.03,WSW,258,5.0,9.0,47,-99.99,,,-99.99,,2013-02-20 23:22:00,
2013-02-20 18:32:00,44.0,26.0,30.04,NW,304,6.0,10.0,48,-99.99,,,-99.99,,2013-02-20 23:32:00,
2013-02-20 18:52:00,44.0,27.0,30.05,West,265,5.0,10.0,50,-99.99,,,-99.99,,2013-02-20 23:52:00,
2013-02-20 19:03:00,43.0,27.0,30.06,West,280,6.0,9.0,52,-99.99,,,-99.99,,2013-02-21 00:03:00,
2013-02-20 19:22:00,42.0,27.0,30.06,West,259,6.0,10.0,55,-99.99,,,-99.99,,2013-02-21 00:22:00,
2013-02-20 19:32:00,41.0,27.0,30.07,West,260,7.0,10.0,56,-99.99,,,-99.99,,2013-02-21 00:32:00,
2013-02-20 19:52:00,41.0,27.0,30.09,SW,229,8.0,8.0,56,-99.99,,,-99.99,,2013-02-21 00:52:00,
2013-02-20 20:01:00,40.0,26.0,30.09,West,262,4.0,15.0,57,-99.99,,,-99.99,,2013-02-21 01:01:00,
2013-02-20 20:21:00,40.0,26.0,30.11,WNW,300,6.0,9.0,58,-99.99,,,-99.99,,2013-02-21 01:21:00,
2013-02-20 20:32:00,39.0,26.0,30.10,SW,227,5.0,12.0,60,-99.99,,,-99.99,,2013-02-21 01:32:00,
2013-02-20 20:52:00,39.0,26.0,30.11,SW,224,7.0,15.0,60,-99.99,,,-99.99,,2013-02-21 01:52:00,
2013-02-20 21:02:00,38.0,26.0,30.12,WSW,258,7.0,15.0,61,-99.99,,,-99.99,,2013-02-21 02:02:00,
2013-02-20 21:22:00,38.0,27.0,30.12,WSW,245,4.0,14.0,64,-99.99,,,-99.99,,2013-02-21 02:22:00,
2013-02-20 21:32:00,38.0,27.0,30.12,SW,224,6.0,15.0,65,-99.99,,,-99.99,,2013-02-21 02:32:00,
2013-02-20 21:42:00,38.0,27.0,30.12,SW,224,6.0,15.0,65,-99.99,,,-99.99,,2013-02-21 02:42:00,
2013-02-20 21:52:00,38.0,27.0,30.12,SW,224,6.0,15.0,65,-99.99,,,-99.99,,2013-02-21 02:52:00,
2013-02-20 22:02:00,37.0,27.0,30.14,WSW,256,6.0,11.0,66,-99.99,,,-99.99,,2013-02-21 03:02:00,
2013-02-20 22:21:00,37.0,27.0,30.14,SW,231,4.0,12.0,68,-99.99,,,-99.99,,2013-02-21 03:21:00,
2013-02-20 22:32:00,37.0,27.0,30.14,SW,234,6.0,11.0,68,-99.99,,,-99.99,,2013-02-21 03:32:00,
2013-02-20 22:52:00,36.0,27.0,30.14,SW,221,3.0,7.0,69,-99.99,,,-99.99,,2013-02-21 03:52:00,
2013-02-20 23:01:00,36.0,27.0,30.14,SW,215,3.0,7.0,70,-99.99,,,-99.99,,2013-02-21 04:01:00,
2013-02-20 23:22:00,36.0,28.0,30.14,WSW,241,2.0,12.0,71,-99.99,,,-99.99,,2013-02-21 04:22:00,
2013-02-20 23:32:00,36.0,28.0,30.13,SSW,196,1.0,6.0,72,-99.99,,,-99.99,,2013-02-21 04:32:00,
2013-02-20 23:52:00,35.0,27.0,30.13,SW,227,4.0,7.0,72,-99.99,,,-99.99,,2013-02-21 04:52:00,